DIRECTV 10

导读

DIRECTV 10是美国DirecTV集团的高清电视直播卫星,由波音公司基于波音702平台制造,于美国东部时间2007年7月7日发射升空,定轨于西经102.8°地球同步轨道。 作为DirecTV新一代全Ka波段高清直播卫星组网的第三颗卫星,它搭载多台Ka波段行波管放大器,配备大口径天线,采用MPEG-4编码,可支持超高清电视信号传输,为美国用户提供了大量本地与全国高清电视服务,大幅拓展了直播卫星传输能力。

Basic Information
目录编号:
31862
目录名称:
DIRECTV 10
国际标识:
2007-032A
轨道中心:
EARTH
卫星名称:
DIRECTV 10
卫星全名:
--
卫星状态:
在轨 (已飞行6920 天)
发射日期:
2007-07-07 UTC
国别 :
美国 (US)
星等 :
--
Orbit Information
数据来源 国际轨道数据 AOE轨道数据
星历时间 2026-06-17T02:21:07+0800
1天前
查看轨道信息
2026-06-17T05:00:00+0800
21小时前
查看轨道信息
半长轴 42716.141km 42716.026km
偏心率 0.0006253 0.0006277
轨道倾角 0.406° 0.406°
近地点辐角 316.674° 315.556°
升交点赤经 89.904° 89.890°
平近点角 176.830° 217.022°
近地点 36311.293km 36311.076km
远地点 36364.715km 36364.702km
周期 1464.360分钟 1464.354分钟
每日圈数 0.983365 0.983369
Detailed Information
使用方式:
暂无
2D Orbit Map
3D Orbit Map
Orbit Altitude Analysis Chart
Orbit Inclination Analysis Chart
Orbit Comprehensive Analysis Chart
View Comprehensive Chart